Regional Weather Roundup
Issued by NWS

Home | Current Version | Previous Version | Graphics & Text | Print | Product List | Glossary On
Versions: 1 2 3 4 5 6 7 8 9 10 11 12 13 14 15 16 17 18 19 20 21 22 23 24 25 26 27 28 29 30 31 32 33 34 35 36 37 38 39 40 41 42 43 44 45 46 47 48 49 50
000
ASUS45 KPSR 290710
RWRAZ

ARIZONA REGIONAL HOURLY WEATHER ROUNDUP
NATIONAL WEATHER SERVICE PHOENIX AZ
1200 AM MST FRI AUG 29 2014

NOTE: FAIR INDICATES FEW OR NO CLOUDS BELOW 12,000 FEET WITH NO
SIGNIFICANT WEATHER AND/OR OBSTRUCTIONS TO VISIBILITY.

AZZ001>003-036-290800-
NORTHWEST ARIZONA

CITY           SKY/WX    TMP DP  RH WIND       PRES   REMARKS
BULLHEAD CITY  CLEAR     90  34  13 E5        29.80F
KINGMAN        CLEAR     64  36  35 SE7       30.03S
$$

AZZ004>008-015-016-018-290800-
NORTH CENTRAL ARIZONA

CITY           SKY/WX    TMP DP  RH WIND       PRES   REMARKS
GRAND CANYON     N/A    N/A N/A N/A MISG        N/A
WILLIAMS       CLEAR     52  41  66 S8        30.34S
PRESCOTT       CLEAR     64  45  49 S8        30.15S
FLAGSTAFF      CLEAR     48  42  80 CALM      30.30F
PAYSON         CLEAR     68  41  37 NE6       30.17S
PAGE           CLEAR     72  42  34 SE3       30.10S
$$

AZZ009>014-017-290800-
NORTHEAST ARIZONA

CITY           SKY/WX    TMP DP  RH WIND       PRES   REMARKS
WINSLOW        CLEAR     62  50  64 SW8       30.16R
SAINT JOHNS    CLEAR     60  48  64 S3        30.19S
WINDOW ROCK    CLEAR     51  38  60 S3        30.27S
SHOW LOW       CLEAR     54  45  71 CALM      30.27S
$$

AZZ023-290800-
GREATER PHOENIX AREA

CITY           SKY/WX    TMP DP  RH WIND       PRES   REMARKS
PHOENIX        CLEAR     96  46  18 N6        29.80R
BUCKEYE          N/A     82  55  39 N7        29.81S
LUKE AFB       NOT AVBL
DEER VALLEY    CLEAR     88  47  24 CALM      29.83S
SCOTTSDALE     CLEAR     91  48  22 N3        29.85S
MESA-GATEWAY   CLEAR     84  48  28 SE7       29.85S
$$

AZZ027-028-290800-
SOUTHWEST MARICOPA COUNTY AND PINAL COUNTY

CITY           SKY/WX    TMP DP  RH WIND       PRES   REMARKS
CASA GRANDE    CLEAR     81  45  28 CALM      29.84S
$$

AZZ503-504-507>509-290800-
SOUTHEAST ARIZONA

CITY           SKY/WX    TMP DP  RH WIND       PRES   REMARKS
TUCSON         CLEAR     81  47  30 S7        29.95F
DAVIS-MONTHAN  CLEAR     79  47  32 SE5       29.94S
NOGALES        CLEAR     66  53  63 N3        30.05S
SIERRA VISTA   PTCLDY    73  46  38 W12       30.10F
DOUGLAS        CLEAR     64  55  72 N7        30.05S
SAFFORD        CLEAR     78  46  32 NW9       29.96S
$$

AZZ020-021-025-026-031-290800-
SOUTHWEST ARIZONA

CITY           SKY/WX    TMP DP  RH WIND       PRES   REMARKS
YUMA           CLEAR     92  42  17 W8        29.75S
$$

CAZ031-033-041-043-047-048-061-290800-
SOUTHERN CALIFORNIA

CITY           SKY/WX    TMP DP  RH WIND       PRES   REMARKS
DOWNTOWN L.A.  CLEAR     73  55  53 CALM      29.89F
L.A. AIRPORT   CLEAR     71  59  65 SW5       29.90S
SAN DIEGO      CLEAR     73  66  78 NW6       29.92F
BURBANK        CLEAR     77  40  26 E6        29.91S
ONTARIO        CLEAR     78  41  26 CALM      29.92F
RIVERSIDE      CLEAR     76  48  37 CALM      29.92S
PALM SPRINGS   CLEAR     95  45  17 NW8       29.81S
EL CENTRO NAS  CLEAR     88  50  27 SW10      29.75F
IMPERIAL       CLEAR     86  53  32 W9        29.75S
BLYTHE         CLEAR     91  42  18 W7        29.77S
NEEDLES        CLEAR     89  35  14 S7        29.81R
$$

NVZ020-UTZ003-290800-
SOUTHERN NEVADA-UTAH

CITY           SKY/WX    TMP DP  RH WIND       PRES   REMARKS
LAS VEGAS      CLEAR     89  30  12 SW12      29.86F
SALT LAKE CITY CLEAR     66  46  48 SE8       30.08F
$$

NMZ009-TXZ055-290800-
NEW MEXICO-WEST TEXAS

CITY           SKY/WX    TMP DP  RH WIND       PRES   REMARKS
ALBUQUERQUE    CLEAR     72  41  32 N7        30.15S
EL PASO        CLEAR     74  54  49 E5        30.00F
$$


........................KEY........................
SKY/WX - SKY CONDITION/WEATHER
TMP    - TEMPERATURE IN FAHRENHEIT
DP     - DEW POINT IN FAHRENHEIT
RH     - RELATIVE HUMIDITY IN PERCENT
WIND   - DIRECTION AND SPEED IN MILES PER HOUR (MPH)
VRB    - VARIABLE WIND DIRECTION
PRES   - MEAN SEA LEVEL PRESSURE IN INCHES OF MERCURY
         F - FALLING PRESSURE   R - RISING PRESSURE
         S - STEADY PRESSURE
VSB    - VISIBILITY IN MILES
HX     - HEAT INDEX IN FAHRENHEIT
WCI    - WIND CHILL INDEX IN FAHRENHEIT
TC     - TEMPERATURE IN CELSIUS WHICH IS ALSO KNOWN AS
         TEMPERATURE IN CENTIGRADE
AFB    - AIR FORCE BASE
         LUKE AFB IS LUKE AIR FORCE BASE
         DAVIS-MONTHAN IS DAVIS-MONTHAN AIR FORCE BASE
NAS    - NAVAL AIR STATION
         EL CENTRO NAS IS EL CENTRO NAVAL AIR STATION
N/A    - NOT AVAILABLE


USA.gov is the U.S. government's official web portal to all federal, state and local government web resources and services.